Simultaneous Nadir Overpasses (SNOs) Predictions

Prediction of SNOs between NOAA-20 and PACE Satellite Orbit:

Table of predicted SNOs for the next 14.0 days since TLE Epoch: 3/22/2025
Index Date (NOAA-20) Time (NOAA-20) Lat,Lon (NOAA-20) SZA (NOAA-20 ) Date (PACE) Time (PACE) Lat,Lon (PACE) SZA (PACE ) Distance(km) Time Diff (sec)
1 03/22/2025 08:21:57 79.84, 16.90 81.33 03/22/2025 08:22:56 79.83, 17.04 81.28 2.90 59
2 03/22/2025 09:12:34 -79.61,-173.76 99.08 03/22/2025 09:12:00 -79.61,-173.64 99.09 2.59 34
3 03/24/2025 13:38:59 -79.70, 118.89 99.81 03/24/2025 13:39:28 -79.70, 118.82 99.81 1.55 29
4 03/24/2025 14:29:37 79.45, -71.71 79.76 03/24/2025 14:28:33 79.45, -71.75 79.79 0.85 64
5 03/26/2025 18:56:06 79.68,-140.24 79.28 03/26/2025 18:56:03 79.67,-140.11 79.26 2.77 3
6 03/28/2025 23:22:31 79.78, 152.24 78.60 03/28/2025 23:23:29 79.78, 152.28 78.56 0.87 58
7 03/29/2025 00:13:08 -79.55, -38.38 101.83 03/29/2025 00:12:33 -79.56, -38.44 101.80 1.46 35
8 03/31/2025 04:39:36 -79.76,-106.76 102.33 03/31/2025 04:40:00 -79.75,-106.61 102.37 3.14 24
9 03/31/2025 05:30:12 79.46, 63.14 77.14 03/31/2025 05:29:04 79.46, 63.09 77.18 1.16 68
10 04/02/2025 09:56:38 79.61, -4.75 76.55 04/02/2025 09:56:29 79.62, -4.83 76.57 1.78 9
11 04/04/2025 14:23:02 79.74, -72.46 75.92 04/04/2025 14:23:51 79.74, -72.54 75.91 1.50 49



Historial Predications of SNOs between NOAA-20 and PACE
